FW8718 Weather Reports


Display with metric or nautical units.
time (UTC)temp
F
wind
direction
speed
MPH
gust
MPH
rain 1hr
in
rain 24hr
in
rain mn
in
humidity
%
barometer
mb
20260507230518 63 324 4.0 12.0 0.00 0.01 0.00 28 1018.4
20260507230056 63 333 3.0 12.0 0.00 0.01 0.00 28 1018.4
20260507225515 62 19 3.0 17.0 0.00 0.01 0.00 29 1018.4
20260507225013 62 42 4.0 17.0 0.00 0.01 0.00 28 1018.4
20260507224557 62 20 6.0 17.0 0.00 0.01 0.00 27 1018.5
20260507224017 63 347 7.0 17.0 0.00 0.01 0.00 26 1018.5
20260507223519 62 304 3.0 6.0 0.00 0.01 0.00 30 1018.3
20260507223055 62 26 0.0 12.0 0.00 0.01 0.00 30 1018.4
20260507222512 62 9 4.0 12.0 0.00 0.01 0.00 31 1018.4
20260507222016 62 264 3.0 13.0 0.00 0.01 0.00 30 1018.4
20260507221555 62 305 4.0 13.0 0.00 0.01 0.00 29 1018.3
20260507221016 61 291 2.0 9.0 0.00 0.01 0.00 31 1018.6
20260507220518 60 323 4.0 15.0 0.00 0.01 0.00 32 1018.9
20260507220109 59 251 3.0 15.0 0.00 0.01 0.00 30 1018.8
20260507215519 59 355 3.0 13.0 0.00 0.02 0.00 33 1018.6
20260507215017 60 304 4.0 13.0 0.00 0.02 0.00 32 1018.9
20260507214604 61 254 5.0 11.0 0.00 0.02 0.00 28 1018.7
20260507214016 62 317 3.0 8.0 0.00 0.02 0.00 34 1018.9
20260507213518 62 35 3.0 9.0 0.00 0.02 0.00 34 1019.1
20260507213054 62 32 3.0 11.0 0.00 0.02 0.00 37 1019.1
20260507212517 62 250 2.0 14.0 0.00 0.02 0.00 33 1019.0
20260507212014 62 5 3.0 14.0 0.00 0.02 0.00 31 1019.3
20260507211551 62 321 3.0 12.0 0.00 0.02 0.00 31 1019.4
20260507211016 62 261 5.0 12.0 0.00 0.02 0.00 33 1019.4
20260507210517 62 304 4.0 8.0 0.00 0.02 0.00 33 1019.6
20260507210115 62 48 3.0 14.0 0.00 0.02 0.00 32 1019.5
20260507205518 62 286 4.0 9.0 0.00 0.04 0.00 33 1019.6
20260507205015 62 276 3.0 9.0 0.00 0.04 0.00 33 1019.8
20260507204600 62 294 5.0 12.0 0.00 0.04 0.00 30 1019.8
20260507204020 62 252 4.0 12.0 0.00 0.04 0.00 35 1019.7
20260507203517 62 109 3.0 10.0 0.00 0.04 0.00 31 1019.9
20260507203054 62 271 4.0 10.0 0.00 0.04 0.00 32 1019.9
20260507202520 61 200 2.0 16.0 0.00 0.04 0.00 36 1019.8
20260507202016 61 240 6.0 12.0 0.00 0.04 0.00 33 1020.0
20260507201011 61 326 4.0 13.0 0.00 0.04 0.00 32 1020.2
20260507200511 61 278 4.0 11.0 0.00 0.04 0.00 33 1020.1
20260507200032 61 338 3.0 9.0 0.00 0.04 0.00 38 1020.1
20260507195513 60 332 3.0 18.0 0.00 0.08 0.00 36 1020.1
20260507195011 60 301 5.0 18.0 0.00 0.08 0.00 36 1020.4
20260507194528 60 269 5.0 14.0 0.00 0.08 0.00 34 1020.4
20260507194010 60 257 4.0 13.0 0.00 0.08 0.00 36 1020.3
20260507193510 60 207 4.0 9.0 0.00 0.08 0.00 36 1020.3
20260507193032 59 360 3.0 10.0 0.00 0.08 0.00 35 1020.6
20260507192513 59 275 4.0 12.0 0.00 0.08 0.00 38 1020.7
20260507192012 58 24 5.0 12.0 0.00 0.08 0.00 39 1020.7
20260507191530 58 227 4.0 10.0 0.00 0.08 0.00 35 1020.8
20260507191013 58 268 4.0 11.0 0.00 0.08 0.00 34 1020.9
20260507190510 58 302 4.0 11.0 0.00 0.08 0.00 36 1020.8
20260507190035 58 229 2.0 13.0 0.00 0.08 0.00 34 1020.8
20260507185516 58 309 4.0 13.0 0.00 0.14 0.00 34 1020.8
20260507185012 58 327 3.0 11.0 0.00 0.14 0.00 34 1020.8
20260507184534 58 331 3.0 11.0 0.00 0.14 0.00 30 1020.7
20260507184017 59 282 3.0 10.0 0.00 0.14 0.00 32 1020.8
20260507183512 59 319 2.0 9.0 0.00 0.14 0.00 30 1020.8
20260507183028 59 281 2.0 4.0 0.00 0.14 0.00 35 1020.7
20260507182513 57 272 1.0 5.0 0.00 0.14 0.00 38 1021.0
20260507182013 57 284 2.0 5.0 0.00 0.14 0.00 33 1021.0
20260507181532 57 326 1.0 6.0 0.00 0.14 0.00 36 1021.1
20260507181013 57 290 1.0 4.0 0.00 0.14 0.00 33 1021.0
20260507180513 56 243 0.0 6.0 0.00 0.14 0.00 35 1020.9
20260507180031 57 233 1.0 7.0 0.00 0.14 0.00 33 1020.9
20260507175512 57 302 2.0 5.0 0.00 0.22 0.00 31 1020.8
20260507175016 57 34 1.0 5.0 0.00 0.22 0.00 32 1021.0
20260507174540 57 41 1.0 5.0 0.00 0.22 0.00 32 1021.0
20260507174014 57 86 2.0 6.0 0.00 0.22 0.00 29 1021.0
20260507173514 57 309 3.0 8.0 0.00 0.22 0.00 35 1021.3
20260507173035 57 215 3.0 11.0 0.00 0.22 0.00 36 1021.3
20260507172512 56 228 3.0 11.0 0.00 0.22 0.00 36 1021.5
20260507172012 57 210 1.0 4.0 0.00 0.22 0.00 35 1021.6
20260507171533 56 223 2.0 6.0 0.00 0.22 0.00 41 1021.7
20260507171013 56 295 2.0 6.0 0.00 0.22 0.00 42 1021.8
20260507170513 55 317 2.0 5.0 0.00 0.22 0.00 36 1021.8
20260507170040 55 331 1.0 7.0 0.00 0.22 0.00 36 1021.8
20260507165514 55 298 2.0 7.0 0.00 0.22 0.00 36 1021.8
20260507165012 54 269 2.0 5.0 0.00 0.22 0.00 37 1021.8
20260507164527 55 327 3.0 6.0 0.00 0.22 0.00 36 1021.9
20260507164015 55 327 3.0 5.0 0.00 0.22 0.00 34 1021.9
20260507163512 54 313 2.0 5.0 0.00 0.22 0.00 36 1021.9
20260507163027 54 302 1.0 5.0 0.00 0.22 0.00 44 1021.9
20260507162512 54 292 1.0 6.0 0.00 0.22 0.00 37 1021.9
20260507162012 54 271 1.0 6.0 0.00 0.22 0.00 35 1021.8
20260507161532 54 5 2.0 5.0 0.00 0.22 0.00 39 1021.9
20260507161013 53 303 2.0 8.0 0.00 0.22 0.00 47 1021.7
20260507160513 53 341 1.0 6.0 0.00 0.22 0.00 44 1021.9
20260507160032 52 239 2.0 7.0 0.00 0.22 0.00 43 1021.8
20260507155512 51 280 2.0 7.0 0.00 0.22 0.00 42 1021.9
20260507155010 51 320 1.0 7.0 0.00 0.22 0.00 47 1021.8
20260507154532 51 334 1.0 5.0 0.00 0.22 0.00 44 1021.9
20260507154014 50 201 1.0 10.0 0.00 0.22 0.00 47 1021.9
20260507153512 50 267 3.0 10.0 0.00 0.22 0.00 48 1021.9
20260507153029 49 236 0.0 7.0 0.00 0.22 0.00 50 1021.8
20260507152518 49 249 2.0 7.0 0.00 0.22 0.00 48 1022.0
20260507152015 48 252 2.0 7.0 0.00 0.22 0.00 54 1021.8
20260507151531 48 269 1.0 7.0 0.00 0.22 0.00 53 1021.8
20260507151012 47 273 2.0 8.0 0.00 0.22 0.00 54 1021.8
20260507150513 46 5 2.0 8.0 0.00 0.22 0.00 54 1021.8
20260507150041 46 196 1.0 8.0 0.00 0.22 0.00 58 1021.9
20260507145512 46 302 3.0 8.0 0.00 0.22 0.00 55 1021.8
20260507145013 45 240 2.0 9.0 0.00 0.22 0.00 57 1021.8
20260507144530 45 314 3.0 9.0 0.00 0.22 0.00 57 1022.0
20260507144013 45 333 3.0 8.0 0.00 0.22 0.00 56 1022.0
20260507143511 44 255 2.0 9.0 0.00 0.22 0.00 58 1022.0
20260507143034 44 337 1.0 9.0 0.00 0.22 0.00 59 1021.9
20260507142512 43 232 2.0 10.0 0.00 0.22 0.00 58 1021.8
20260507142013 43 268 1.0 9.0 0.00 0.22 0.00 59 1021.8
20260507141533 43 274 2.0 9.0 0.00 0.22 0.00 59 1022.0
20260507141014 42 281 3.0 9.0 0.00 0.22 0.00 58 1022.0
20260507140514 42 307 0.0 6.0 0.00 0.22 0.00 62 1021.8
20260507140032 42 208 1.0 6.0 0.00 0.22 0.00 60 1021.9
20260507135517 41 348 1.0 4.0 0.00 0.22 0.00 58 1021.8
20260507135017 41 284 0.0 4.0 0.00 0.22 0.00 59 1021.6
20260507134531 40 269 0.0 4.0 0.00 0.22 0.00 59 1021.8
20260507134015 39 271 0.0 7.0 0.00 0.22 0.00 61 1021.6
20260507133512 39 322 0.0 7.0 0.00 0.22 0.00 62 1021.8
20260507133030 38 287 0.0 4.0 0.00 0.22 0.00 61 1021.6
20260507132514 37 292 0.0 2.0 0.00 0.22 0.00 63 1021.8
20260507132011 36 292 0.0 2.0 0.00 0.22 0.00 63 1021.8
20260507131536 35 285 0.0 2.0 0.00 0.22 0.00 67 1021.8
20260507131011 34 285 0.0 3.0 0.00 0.22 0.00 68 1021.8
20260507130515 33 283 0.0 3.0 0.00 0.22 0.00 70 1021.9
20260507130031 32 290 0.0 2.0 0.00 0.22 0.00 70 1021.9
20260507125512 32 304 0.0 2.0 0.00 0.22 0.00 72 1021.8
20260507125014 31 304 0.0 2.0 0.00 0.22 0.00 71 1021.6
20260507124531 31 304 0.0 1.0 0.00 0.22 0.00 73 1021.6
20260507124016 30 190 0.0 4.0 0.00 0.22 0.00 74 1021.5
20260507123511 30 284 0.0 4.0 0.00 0.22 0.00 74 1021.5
20260507123035 29 283 0.0 4.0 0.00 0.22 0.00 75 1021.4
20260507122511 28 283 0.0 4.0 0.00 0.22 0.00 75 1021.5
20260507122014 28 286 0.0 2.0 0.00 0.22 0.00 77 1021.3
20260507121535 28 294 0.0 0.0 0.00 0.22 0.00 78 1021.5
20260507121013 28 294 0.0 0.0 0.00 0.22 0.00 78 1021.3
20260507120514 28 294 0.0 0.0 0.00 0.22 0.00 76 1021.3
20260507120041 29 294 0.0 1.0 0.00 0.22 0.00 76 1021.3
20260507115514 29 294 0.0 1.0 0.00 0.22 0.00 75 1021.3
20260507115012 29 294 0.0 1.0 0.00 0.22 0.00 75 1021.4
20260507114532 29 294 0.0 2.0 0.00 0.22 0.00 76 1021.4
20260507114013 29 294 0.0 2.0 0.00 0.22 0.00 75 1021.5
20260507113513 28 294 0.0 3.0 0.00 0.22 0.00 75 1021.3
20260507113034 28 294 0.0 3.0 0.00 0.22 0.00 75 1021.4
20260507112513 28 151 0.0 0.0 0.00 0.22 0.00 77 1021.3
20260507112014 27 151 0.0 1.0 0.00 0.22 0.00 77 1021.3
20260507111535 27 151 0.0 1.0 0.00 0.22 0.00 78 1021.4
20260507111013 27 151 0.0 0.0 0.00 0.22 0.00 79 1021.4
20260507110512 27 151 0.0 0.0 0.00 0.22 0.00 79 1021.4
20260507110036 27 151 0.0 0.0 0.00 0.22 0.00 80 1021.3
20260507105515 27 151 0.0 0.0 0.00 0.22 0.00 80 1021.3
20260507105012 27 151 0.0 0.0 0.00 0.22 0.00 80 1021.3
20260507104536 27 151 0.0 1.0 0.00 0.22 0.00 80 1021.2
20260507104014 27 151 0.0 1.0 0.00 0.22 0.00 82 1021.3
20260507103515 26 151 0.0 2.0 0.00 0.22 0.00 84 1021.1
20260507103034 25 151 0.0 2.0 0.00 0.22 0.00 86 1021.3
20260507102517 25 151 0.0 1.0 0.00 0.22 0.00 87 1021.4
20260507102014 25 151 0.0 0.0 0.00 0.22 0.00 88 1021.5
20260507101538 24 151 0.0 0.0 0.00 0.22 0.00 88 1021.6
20260507101011 24 151 0.0 0.0 0.00 0.22 0.00 89 1021.7
20260507100511 24 151 0.0 0.0 0.00 0.22 0.00 89 1021.7
20260507100040 24 151 0.0 0.0 0.00 0.22 0.00 89 1021.7
20260507095515 24 151 0.0 0.0 0.00 0.22 0.00 89 1021.7
20260507095013 24 151 0.0 2.0 0.00 0.22 0.00 90 1021.6
20260507094533 24 151 0.0 2.0 0.00 0.22 0.00 90 1021.6
20260507094012 24 151 0.0 0.0 0.00 0.22 0.00 90 1021.4
20260507093512 24 151 0.0 0.0 0.00 0.22 0.00 90 1021.5
20260507093035 24 151 0.0 0.0 0.00 0.22 0.00 91 1021.6
20260507092515 24 151 0.0 1.0 0.00 0.22 0.00 91 1021.5
20260507092012 24 151 0.0 1.0 0.00 0.22 0.00 91 1021.6
20260507091534 24 151 0.0 0.0 0.00 0.22 0.00 91 1021.7
20260507091014 24 151 0.0 2.0 0.00 0.22 0.00 92 1021.8
20260507090515 24 151 0.0 2.0 0.00 0.22 0.00 92 1021.8
20260507090036 24 151 0.0 2.0 0.00 0.22 0.00 92 1021.8
20260507085511 24 151 0.0 0.0 0.00 0.22 0.00 92 1021.9
20260507085012 24 151 0.0 0.0 0.00 0.22 0.00 92 1021.9
20260507084534 24 151 0.0 0.0 0.00 0.22 0.00 93 1022.0
20260507084012 24 151 0.0 2.0 0.00 0.22 0.00 93 1021.8
20260507083514 24 151 0.0 2.0 0.00 0.22 0.00 93 1022.0
20260507083030 23 151 0.0 1.0 0.00 0.22 0.00 93 1021.9
20260507082514 23 151 0.0 1.0 0.00 0.22 0.00 92 1022.1
20260507082016 23 151 0.0 0.0 0.00 0.22 0.00 93 1022.0
20260507081543 23 151 0.0 0.0 0.00 0.22 0.00 93 1022.1
20260507081015 23 151 0.0 0.0 0.00 0.22 0.00 93 1022.2
20260507080516 24 151 0.0 0.0 0.00 0.22 0.00 93 1022.3
20260507080034 24 151 0.0 0.0 0.00 0.22 0.00 93 1022.3
20260507075519 24 151 0.0 0.0 0.00 0.22 0.00 93 1022.2
20260507075011 23 151 0.0 0.0 0.00 0.22 0.00 93 1022.3
20260507074550 23 151 0.0 0.0 0.00 0.22 0.00 93 1022.1
20260507074014 23 151 0.0 0.0 0.00 0.22 0.00 93 1022.3
20260507073516 23 151 0.0 0.0 0.00 0.22 0.00 93 1022.4
20260507073031 23 151 0.0 1.0 0.00 0.22 0.00 92 1022.3
20260507072518 23 151 0.0 1.0 0.00 0.22 0.00 92 1022.3
20260507072012 23 151 0.0 0.0 0.00 0.22 0.00 92 1022.3
20260507071534 23 151 0.0 1.0 0.00 0.22 0.00 92 1022.3
20260507071014 23 151 0.0 1.0 0.00 0.22 0.00 92 1022.3
20260507070519 24 151 0.0 0.0 0.00 0.22 0.00 92 1022.4
20260507070035 24 151 0.0 0.0 0.00 0.22 0.00 92 1022.4
20260507065512 24 151 0.0 0.0 0.00 0.22 0.00 92 1022.3
20260507065011 24 151 0.0 0.0 0.00 0.22 0.00 92 1022.2
20260507064531 24 151 0.0 0.0 0.00 0.22 0.00 92 1022.3
20260507064013 24 151 0.0 0.0 0.00 0.22 0.00 92 1022.3
20260507063515 25 151 0.0 0.0 0.00 0.22 0.00 92 1022.3
20260507063032 25 151 0.0 1.0 0.00 0.22 0.00 92 1022.2
20260507062514 25 151 0.0 1.0 0.00 0.22 0.00 92 1022.1
20260507062014 25 151 0.0 0.0 0.00 0.22 0.00 92 1022.2
20260507061536 26 151 0.0 0.0 0.00 0.22 0.00 92 1022.1
20260507061012 26 151 0.0 0.0 0.00 0.22 0.00 92 1022.1
20260507060512 26 151 0.0 0.0 0.00 0.22 0.00 92 1022.2
20260507060036 27 151 0.0 0.0 0.00 0.22 0.00 93 1022.2
20260507055513 27 151 0.0 0.0 0.00 0.22 0.22 93 1022.0
20260507055014 27 151 0.0 0.0 0.00 0.22 0.22 93 1022.0
20260507054538 27 151 0.0 0.0 0.00 0.22 0.22 93 1021.9
20260507054012 27 151 0.0 0.0 0.00 0.22 0.22 93 1021.8
20260507053513 27 151 0.0 0.0 0.00 0.22 0.22 93 1021.9
20260507053035 27 151 0.0 0.0 0.00 0.22 0.22 93 1022.0
20260507052514 28 151 0.0 1.0 0.00 0.22 0.22 93 1021.9
20260507052014 28 151 0.0 2.0 0.00 0.22 0.22 93 1021.9
20260507051532 28 151 0.0 3.0 0.00 0.22 0.22 92 1021.9
20260507051022 28 148 1.0 3.0 0.00 0.22 0.22 92 1021.7
20260507050513 28 138 0.0 3.0 0.00 0.22 0.22 93 1021.8
20260507050033 28 169 0.0 1.0 0.00 0.22 0.22 93 1021.8
20260507045513 28 169 0.0 3.0 0.00 0.22 0.22 93 1021.8
20260507045014 28 169 1.0 3.0 0.00 0.22 0.22 92 1021.8
20260507044539 28 168 0.0 5.0 0.00 0.22 0.22 92 1021.9
20260507044015 28 192 1.0 5.0 0.00 0.22 0.22 92 1021.8
20260507043512 28 197 1.0 4.0 0.00 0.22 0.22 92 1021.7
20260507043035 28 178 1.0 3.0 0.00 0.22 0.22 92 1021.8
20260507042515 27 169 0.0 6.0 0.00 0.22 0.22 92 1021.8
20260507042012 27 166 1.0 6.0 0.00 0.22 0.22 92 1022.0
20260507041534 27 179 0.0 0.0 0.00 0.22 0.22 91 1022.0
20260507041013 27 179 0.0 0.0 0.00 0.22 0.22 91 1022.0
20260507040513 27 179 0.0 0.0 0.00 0.22 0.22 91 1022.0
20260507040039 27 179 0.0 0.0 0.00 0.22 0.22 91 1022.0
20260507035513 27 184 0.0 0.0 0.00 0.22 0.22 91 1021.9
20260507035014 27 176 0.0 1.0 0.00 0.22 0.22 91 1022.0
20260507034533 27 176 0.0 1.0 0.00 0.22 0.22 91 1022.0
20260507034012 27 176 0.0 2.0 0.00 0.22 0.22 90 1022.0
20260507033514 27 176 0.0 2.0 0.00 0.22 0.22 90 1021.9
20260507033034 27 171 0.0 1.0 0.00 0.22 0.22 90 1021.8
20260507032512 28 171 0.0 2.0 0.00 0.22 0.22 90 1021.9
20260507032018 28 171 0.0 2.0 0.00 0.22 0.22 90 1021.7
20260507031539 28 171 0.0 2.0 0.00 0.22 0.22 90 1021.7
20260507031015 28 171 0.0 3.0 0.00 0.22 0.22 89 1021.5
20260507030512 28 171 0.0 3.0 0.00 0.22 0.22 89 1021.5
20260507030049 28 219 0.0 3.0 0.00 0.22 0.22 89 1021.4
20260507025516 28 219 0.0 3.0 0.00 0.22 0.22 89 1021.4
20260507025012 29 229 0.0 2.0 0.00 0.22 0.22 88 1021.4
20260507024541 29 229 0.0 5.0 0.00 0.22 0.22 88 1021.4
20260507024016 29 230 2.0 5.0 0.00 0.22 0.22 88 1021.4
20260507023514 29 218 1.0 4.0 0.00 0.22 0.22 88 1021.3
20260507023036 29 213 0.0 3.0 0.00 0.22 0.22 87 1021.3
20260507022513 29 213 0.0 2.0 0.00 0.22 0.22 87 1021.2
20260507022013 30 215 0.0 2.0 0.00 0.22 0.22 87 1021.1
20260507021536 30 216 0.0 3.0 0.00 0.22 0.22 86 1021.0
20260507021013 30 206 1.0 5.0 0.00 0.22 0.22 86 1021.0
20260507020516 30 251 0.0 5.0 0.00 0.22 0.22 86 1021.0
20260507020035 31 171 0.0 4.0 0.00 0.22 0.22 85 1020.9
20260507015512 31 188 0.0 4.0 0.00 0.22 0.22 85 1020.8
20260507015015 31 225 1.0 5.0 0.00 0.22 0.22 84 1020.7
20260507014545 32 207 0.0 5.0 0.00 0.22 0.22 84 1020.8
20260507014013 32 223 0.0 4.0 0.00 0.22 0.22 84 1020.8
20260507013513 32 211 0.0 6.0 0.00 0.22 0.22 83 1020.7
20260507013035 33 223 0.0 6.0 0.00 0.22 0.22 82 1020.7
20260507012513 33 234 0.0 7.0 0.00 0.22 0.22 81 1020.9
20260507012017 34 234 3.0 7.0 0.00 0.22 0.22 80 1020.7
20260507011535 34 214 1.0 6.0 0.00 0.22 0.22 79 1020.8
20260507011013 35 225 1.0 7.0 0.00 0.22 0.22 79 1020.8
20260507010512 36 166 4.0 7.0 0.01 0.22 0.22 78 1020.6
20260507010038 36 240 2.0 8.0 0.01 0.22 0.22 79 1020.5
20260507005515 36 229 2.0 7.0 0.01 0.22 0.22 79 1020.5
20260507005017 36 229 2.0 9.0 0.01 0.22 0.22 78 1020.3
20260507004533 36 216 3.0 9.0 0.01 0.22 0.22 78 1020.4
20260507004020 36 136 1.0 8.0 0.01 0.22 0.22 77 1020.3
20260507003513 36 210 2.0 8.0 0.01 0.22 0.22 77 1020.4
20260507003038 36 163 3.0 6.0 0.01 0.22 0.22 77 1020.3
20260507002512 36 228 2.0 10.0 0.01 0.22 0.22 77 1020.3
20260507002014 36 180 3.0 10.0 0.01 0.22 0.22 77 1020.3
20260507001535 36 222 0.0 7.0 0.01 0.22 0.22 79 1020.4
20260507001017 36 242 3.0 8.0 0.01 0.22 0.22 77 1020.5
20260507000512 36 227 1.0 8.0 0.00 0.21 0.21 78 1020.4
20260507000042 36 305 2.0 6.0 0.00 0.21 0.21 79 1020.3
20260506235513 36 278 1.0 8.0 0.00 0.22 0.21 79 1020.3
20260506235015 36 215 2.0 8.0 0.00 0.22 0.21 77 1020.3
20260506234539 36 265 0.0 6.0 0.00 0.22 0.21 76 1020.5
20260506234014 37 204 3.0 8.0 0.00 0.22 0.21 76 1020.6
20260506233514 37 236 2.0 7.0 0.00 0.22 0.21 76 1020.4
20260506233039 37 157 3.0 8.0 0.00 0.22 0.21 78 1020.6
20260506232514 36 224 3.0 6.0 0.00 0.22 0.21 80 1020.5
20260506232016 35 221 0.0 5.0 0.00 0.22 0.21 80 1020.4
20260506231535 34 191 2.0 6.0 0.00 0.22 0.21 78 1020.3
20260506231012 34 214 2.0 5.0 0.00 0.22 0.21 79 1020.3